This is the latest recevied weather packets stored in our database for station/object KF6FPU-15. If no packets are shown the sender has not sent any weather packets the latest 1 day(s).
| Time | Temp. | Humidity | Pressure | Rain* | Wind** | Luminosity | Snow |
|---|---|---|---|---|---|---|---|
| 1778034706 | 28.89° C | 20% | 1015.4 hPa | - | 0 m/s | - | - |
| 1778034106 | 28.89° C | 20% | 1015.3 hPa | - | 0 m/s | - | - |
| 1778033506 | 28.89° C | 20% | 1015.1 hPa | - | 0 m/s | - | - |
| 1778032906 | 28.89° C | 20% | 1015.2 hPa | - | 0 m/s | - | - |
| 1778032306 | 28.89° C | 20% | 1015.1 hPa | - | 0 m/s | - | - |
| 1778031706 | 29.44° C | 20% | 1015.1 hPa | - | 0 m/s | - | - |
| 1778031106 | 29.44° C | 20% | 1015.1 hPa | - | 0 m/s | - | - |
| 1778030506 | 29.44° C | 20% | 1015 hPa | - | 0 m/s | - | - |
| 1778029906 | 29.44° C | 20% | 1014.9 hPa | - | 0 m/s | - | - |
| 1778028706 | 29.44° C | 20% | 1014.8 hPa | - | 0 m/s | - | - |
| 1778028106 | 29.44° C | 20% | 1014.8 hPa | - | 0 m/s | - | - |
| 1778027506 | 29.44° C | 20% | 1014.7 hPa | - | 0 m/s | - | - |
| 1778026906 | 28.89° C | 20% | 1014.8 hPa | - | 0 m/s | - | - |
| 1778026306 | 27.22° C | 19% | 1014.7 hPa | - | 0 m/s | - | - |
| 1778025706 | 27.78° C | 20% | 1014.6 hPa | - | 0 m/s | - | - |
| 1778025106 | 28.89° C | 19% | 1014.6 hPa | - | 0 m/s | - | - |
| 1778024506 | 30° C | 18% | 1014.6 hPa | - | 0 m/s | - | - |
| 1778023906 | 31.11° C | 19% | 1014.7 hPa | - | 0 m/s | - | - |
| 1778023306 | 32.22° C | 18% | 1014.7 hPa | - | 0 m/s | - | - |
| 1778022106 | 35.56° C | 18% | 1014.7 hPa | - | 0 m/s | - | - |
| 1778021506 | 36.67° C | 18% | 1014.7 hPa | - | 0 m/s | - | - |
| 1778020906 | 35.56° C | 18% | 1014.8 hPa | - | 0 m/s | - | - |
| 1778020306 | 36.11° C | 18% | 1014.9 hPa | - | 0 m/s | - | - |
| 1778019706 | 34.44° C | 18% | 1015 hPa | - | 0 m/s | - | - |
| 1778019106 | 33.89° C | 18% | 1015 hPa | - | 0 m/s | - | - |
* Rain since midnight (hover to see other rain measurements)
** Current wind speed in m/s (hover to see current wind gust speed)